CAPE
nan nan nan nan nan nan nan nan nan nan nan nan nan nan nan nan nan nan nan nan nan nan nan nan nan nan nan nan nan nan nan nan nan nan nan nan nan nan nan nan nan 1 3 2 2 1 1 nan nan nan nan 0 4 4 15 22 22 30 46 54 54 67 82 96 96 136 225 242 251 251 205 81 nan nan nan nan nan nan nan 1 1 47 49 61 61 196
nan nan nan nan nan nan nan nan nan nan nan nan nan nan nan nan nan nan nan nan nan nan nan nan nan nan nan nan nan nan nan nan nan nan nan nan nan nan nan nan nan nan 1 5 5 4 3 2 2 1 0 nan nan nan 2 7 7 15 27 38 38 67 104 137 137 190 241 332 278 278 192 29 nan nan nan nan nan nan nan nan nan 17 57 118 118 248
nan nan nan nan nan nan nan nan nan nan nan nan nan nan nan nan nan nan nan nan nan nan nan nan nan nan nan nan nan nan nan nan nan nan nan nan nan nan nan nan nan nan nan 3 3 6 7 5 5 3 2 0 nan nan nan nan nan 0 2 8 8 20 40 96 96 124 171 212 148 148 60 nan nan nan nan nan nan nan nan nan nan 6 65 162 162 353
1 nan nan nan nan nan nan nan nan nan nan nan nan nan nan nan nan nan nan nan nan nan nan nan nan nan nan nan nan nan nan nan nan nan nan nan nan nan nan nan nan nan nan 1 1 4 10 9 9 6 4 2 0 0 nan nan nan nan nan nan nan nan 2 9 9 31 49 28 nan nan nan nan nan nan nan nan nan nan nan nan nan nan 13 146 146 423
3 nan nan nan nan nan nan nan nan nan nan nan nan nan nan 0 nan nan nan 0 0 nan nan nan nan nan nan nan nan nan nan nan nan nan nan nan nan nan nan nan nan nan nan nan nan 0 3 7 7 7 4 3 1 1 0 nan nan nan nan nan nan nan nan nan nan 0 0 nan nan nan nan nan nan nan nan nan nan nan nan nan nan nan 2 87 87 367
2 1 0 1 1 nan nan 0 1 1 4 1 3 3 4 5 2 2 2 1 1 1 0 0 0 nan nan nan nan nan nan nan nan nan nan nan nan nan nan nan nan nan nan nan nan nan nan 0 0 2 2 0 0 0 0 nan nan nan nan nan nan nan nan nan nan nan nan nan nan nan nan nan nan nan nan nan nan nan 3 2 2 3 1 21 21 224
2 3 6 6 6 5 4 3 2 2 1 2 4 4 6 11 9 9 3 3 3 2 1 0 0 nan nan nan nan nan nan nan nan nan nan nan nan nan nan nan nan nan nan nan nan nan nan nan nan nan nan nan nan nan nan nan nan nan nan nan nan nan nan nan nan nan nan nan nan nan nan nan nan nan nan nan nan nan 4 9 9 14 1 5 5 114
12 9 8 7 7 8 5 5 4 4 3 2 1 1 0 0 2 2 4 9 9 10 4 3 3 2 1 1 1 1 0 nan nan nan nan nan nan nan 0 1 1 4 7 12 12 17 22 25 25 22 18 15 8 8 1 nan nan nan nan nan nan nan nan nan nan nan nan nan nan nan nan nan nan nan nan nan nan nan nan 0 0 13 58 49 49 62
17 13 8 10 10 7 6 1 2 2 3 3 2 2 nan nan nan nan 0 2 2 8 7 5 5 2 1 3 2 2 3 1 nan nan nan nan nan nan nan 2 2 5 8 10 10 17 27 34 34 41 38 33 25 25 13 2 2 nan nan nan nan nan nan nan nan nan nan nan nan nan nan nan nan nan nan nan nan nan nan nan nan nan 32 69 69 106
19 18 14 9 9 5 7 1 0 0 4 5 4 4 3 1 0 0 1 2 2 4 5 6 6 2 1 3 6 6 2 2 9 9 8 1 2 2 1 0 0 1 4 6 6 11 24 34 34 45 49 48 37 37 24 7 7 0 nan nan nan nan nan nan nan nan nan nan nan nan nan nan nan nan nan nan nan nan nan nan nan nan 0 28 28 82
10 13 10 7 7 5 6 3 1 1 6 5 3 3 3 4 2 2 2 1 1 1 3 3 3 5 4 1 4 4 3 1 1 1 7 9 6 6 2 0 0 0 1 5 5 11 19 38 38 51 59 54 44 44 29 13 13 1 nan nan nan nan nan nan nan nan nan nan nan nan nan nan nan nan nan nan nan nan nan nan nan nan nan nan nan 6
8 6 5 4 4 2 2 2 4 4 5 2 1 1 1 5 5 5 6 4 4 2 4 6 6 8 12 6 6 6 6 7 7 7 8 11 10 10 1 nan nan 0 1 4 4 8 18 35 35 58 70 79 58 58 36 21 21 3 nan nan nan nan nan nan nan nan nan nan nan nan nan nan nan nan nan nan nan nan nan nan nan nan nan nan nan nan
8 5 4 4 4 3 2 0 1 1 0 1 1 1 1 2 5 5 10 7 7 6 6 6 6 9 12 13 12 12 12 10 13 13 10 11 9 9 4 0 0 nan 1 1 1 0 6 27 27 45 68 87 71 71 42 26 26 7 nan nan nan nan nan nan nan nan nan nan nan nan nan nan nan nan nan nan nan nan nan nan nan nan nan nan nan nan
7 6 5 5 5 4 3 3 3 3 2 2 3 3 4 5 5 5 4 4 4 3 6 7 7 7 8 12 15 15 15 14 13 13 14 14 19 19 15 7 7 3 5 2 2 1 5 11 11 23 48 75 88 88 67 42 42 16 5 1 1 nan nan nan nan nan nan nan nan nan nan nan nan nan nan nan nan nan nan nan nan nan nan nan nan nan
6 5 4 4 4 5 4 4 4 4 3 5 5 5 5 5 4 4 1 2 2 2 5 7 7 8 6 7 12 12 16 16 16 16 18 18 27 27 31 24 24 17 12 10 10 16 46 65 65 65 72 85 68 68 75 104 104 58 20 7 7 2 nan nan nan nan nan nan nan nan nan nan nan nan nan nan nan nan nan nan nan nan nan nan nan nan
7 9 5 4 4 6 4 5 4 4 4 5 5 5 3 5 6 6 2 5 5 1 4 3 3 4 5 5 9 9 13 15 17 17 21 23 27 27 44 32 32 24 27 29 29 57 101 161 161 197 189 120 60 60 36 57 57 75 48 27 27 7 0 nan nan nan nan nan nan nan nan nan nan nan nan nan nan nan nan nan nan nan nan nan nan nan
8 8 6 4 4 5 3 4 3 3 5 5 4 4 4 9 8 8 2 6 6 0 8 5 5 2 1 4 9 9 15 12 15 15 23 27 26 26 51 41 41 39 39 45 45 49 63 63 63 55 70 102 94 94 46 37 37 30 36 28 28 13 3 nan nan nan nan nan nan nan nan nan nan nan nan nan nan nan nan nan nan nan nan nan nan nan
11 8 6 5 5 5 4 2 5 5 4 4 5 5 6 10 8 8 6 5 5 4 13 7 7 3 nan 5 6 6 14 9 16 16 22 25 27 27 50 50 50 36 38 41 41 36 46 39 39 15 0 24 28 28 31 41 41 37 37 27 27 16 7 1 1 nan nan nan nan nan nan nan nan nan nan nan nan nan nan nan nan nan nan nan nan nan
10 13 7 8 8 7 7 5 7 7 2 2 2 2 2 8 7 7 8 13 13 8 10 6 6 3 1 8 8 8 9 12 10 10 24 29 27 27 37 34 34 34 32 33 33 33 38 50 50 41 7 nan 0 0 0 8 8 24 34 30 30 19 4 0 0 nan nan nan nan nan nan nan nan nan nan nan nan nan nan nan nan nan nan nan nan nan
9 9 7 7 7 5 5 6 6 6 3 5 4 4 6 4 2 2 8 4 4 4 4 5 5 5 5 6 7 7 12 16 17 17 29 34 29 29 29 28 28 28 27 27 27 26 32 55 55 53 23 1 nan nan nan nan nan 4 14 20 20 21 12 0 0 nan nan nan nan nan nan nan nan nan nan nan nan nan nan nan nan nan nan nan nan nan
12 10 12 8 8 7 3 5 6 6 10 13 8 8 9 4 1 1 2 3 3 3 6 4 4 4 5 6 5 5 17 17 25 25 33 31 28 28 22 22 22 23 29 33 33 27 29 44 44 45 30 11 nan nan nan nan nan nan 0 7 7 16 20 17 17 9 nan nan nan nan nan nan nan nan nan nan nan nan nan nan nan nan nan nan nan nan
14 10 12 11 11 12 11 9 16 16 20 18 6 6 4 2 4 4 4 3 3 3 4 2 2 4 3 3 5 5 18 14 26 26 28 28 26 26 18 16 16 24 27 27 27 27 30 37 37 31 28 20 2 2 nan nan nan nan nan nan nan 4 13 18 18 16 7 nan nan nan nan nan nan nan nan nan nan nan nan nan nan nan nan nan nan nan
19 15 16 17 17 14 18 17 20 20 28 19 20 20 13 6 5 5 3 8 8 7 11 12 12 14 14 11 18 18 11 12 15 15 20 15 18 18 17 12 12 12 20 25 25 26 26 25 25 23 27 26 10 10 nan nan nan nan nan nan nan nan 4 12 12 16 12 nan nan nan nan nan nan nan nan nan nan nan nan nan nan nan nan nan nan nan
26 26 27 22 22 22 18 14 20 20 25 27 24 24 26 25 23 23 27 29 29 30 33 23 23 23 19 22 19 19 17 15 11 11 14 22 22 22 13 12 12 15 19 22 22 25 29 25 25 24 25 28 17 17 5 nan nan nan nan nan nan nan nan 6 6 12 13 3 nan nan nan nan nan nan nan nan nan nan nan nan nan nan nan nan nan nan
20 20 18 17 17 32 24 22 31 31 28 25 32 32 42 50 50 50 56 49 49 41 32 22 22 14 10 24 23 23 26 29 18 18 19 20 17 17 15 15 15 15 18 22 22 25 27 27 27 26 23 26 23 23 13 4 4 nan nan nan nan nan nan 2 2 9 13 5 nan nan nan nan nan nan nan nan nan nan nan nan nan nan nan nan nan nan
24 21 19 27 27 51 56 57 60 60 51 29 23 23 25 32 32 32 25 27 27 22 14 4 4 3 6 18 23 23 20 31 31 31 26 13 18 18 14 17 17 12 18 21 21 24 24 25 25 26 22 22 27 27 21 14 14 5 0 nan nan nan nan 1 1 8 11 7 nan nan nan nan nan nan nan nan nan nan nan nan nan nan nan nan nan nan
44 46 55 58 58 59 63 69 78 78 88 78 42 42 32 26 15 15 11 9 9 6 0 4 4 7 13 14 16 16 21 33 46 46 55 35 25 25 21 16 16 15 20 19 19 21 26 25 25 24 22 20 24 24 28 24 24 19 9 1 1 0 0 nan nan 1 7 8 3 3 nan nan nan nan nan nan nan nan nan nan nan nan nan nan nan nan
45 48 49 52 52 54 58 66 71 71 74 76 76 76 46 19 8 8 7 7 7 4 1 7 7 11 12 7 14 14 20 32 58 58 76 62 37 37 37 28 28 13 12 19 19 27 39 37 37 30 26 20 22 22 34 33 33 28 20 6 6 0 nan nan nan nan nan 0 0 0 2 0 nan nan nan nan nan nan nan nan nan nan nan nan nan nan
41 41 42 45 45 47 47 48 49 49 49 48 51 51 35 6 8 8 7 6 6 2 7 13 13 10 8 7 11 11 22 30 40 40 67 84 63 63 59 49 49 44 40 29 29 38 37 36 36 32 29 31 31 31 40 38 38 31 23 12 12 nan nan nan nan nan nan nan nan nan nan 1 2 2 nan nan nan nan nan nan nan nan nan nan nan nan
23 27 29 31 31 29 27 20 26 26 32 36 41 41 29 8 5 5 8 7 7 1 9 16 16 14 10 10 18 18 23 27 23 23 38 64 89 89 81 78 78 87 81 68 68 56 37 42 42 40 37 46 40 40 38 41 41 34 25 16 16 4 nan nan nan nan nan nan nan nan nan nan nan nan 0 nan nan nan nan nan nan nan nan nan nan nan
8 6 6 10 10 11 10 9 13 13 23 32 35 35 26 8 5 5 7 5 5 2 8 15 15 15 18 14 16 16 19 18 22 22 23 49 70 70 91 116 116 137 124 77 77 37 46 42 42 42 46 55 49 49 45 39 39 34 30 29 29 27 9 nan nan nan nan nan nan nan nan nan nan nan nan nan nan nan nan nan nan nan nan nan nan nan
7 4 3 4 4 3 4 4 4 4 4 4 3 3 7 9 7 7 4 2 2 4 10 14 14 22 28 29 36 36 34 36 45 45 40 42 59 59 66 76 76 91 130 132 132 115 71 57 57 46 31 39 38 38 41 35 35 33 27 23 23 25 38 58 58 45 32 8 nan nan nan nan nan nan nan nan nan nan nan nan nan nan nan 0 0 nan
7 5 5 5 5 4 5 4 5 5 4 3 1 1 1 3 9 9 4 4 4 5 6 11 11 19 25 25 28 28 38 45 61 61 74 63 68 68 59 57 57 66 83 108 108 137 124 89 89 64 58 52 49 49 42 36 36 27 23 18 18 14 13 62 62 176 218 157 94 94 1 nan nan nan nan nan nan nan nan nan nan nan nan 2 2 nan
6 8 7 5 5 3 4 5 4 4 4 2 5 5 5 nan 3 3 6 7 7 10 8 8 8 13 24 26 31 31 38 44 68 68 89 84 67 67 78 82 82 67 61 77 77 101 114 85 85 63 54 56 52 52 49 38 38 33 34 28 28 21 25 50 50 191 291 290 219 219 90 19 nan nan nan nan nan nan nan nan nan nan nan nan nan nan
4 6 5 4 4 3 4 5 6 6 6 3 5 5 6 2 1 1 1 5 5 9 15 17 17 17 18 24 32 32 36 44 64 64 103 109 72 72 61 92 92 105 86 81 81 73 87 75 75 69 66 55 56 56 46 47 47 55 58 66 66 76 82 104 104 220 267 328 253 253 150 82 26 26 nan nan nan nan nan nan nan nan nan nan nan nan
4 5 6 4 4 3 4 6 6 6 5 2 4 4 3 2 1 1 2 4 4 10 21 15 15 18 25 30 29 29 36 48 66 66 92 111 92 92 59 85 85 108 87 77 77 82 76 52 52 51 55 52 38 38 38 45 45 53 55 81 81 121 153 189 189 266 197 195 194 194 129 108 54 54 14 nan nan nan nan nan nan nan nan nan nan nan
7 6 5 3 3 3 3 4 4 4 4 2 2 2 3 1 1 1 3 7 7 8 10 19 19 16 37 30 27 27 42 56 66 66 84 112 112 112 71 80 80 110 94 72 72 88 85 56 56 50 38 36 32 32 26 28 28 36 37 45 45 64 109 143 143 245 85 89 122 122 100 105 63 63 16 nan nan nan nan nan nan nan nan nan nan nan
5 5 5 3 3 3 2 3 2 2 3 3 2 2 2 1 3 3 4 5 5 10 6 4 4 3 23 39 30 30 33 43 51 51 74 81 110 110 85 64 64 96 113 88 88 97 76 67 67 68 35 24 33 33 31 24 24 24 20 24 24 27 37 78 78 131 160 82 42 42 61 92 97 97 45 0 nan nan nan nan nan nan nan nan nan nan
3 2 4 6 6 4 2 3 3 3 4 4 2 2 1 2 5 5 3 4 4 5 3 4 4 2 5 15 23 23 29 27 33 33 40 35 54 54 68 54 54 63 84 90 90 102 77 60 60 83 58 37 28 28 20 22 22 21 21 21 21 16 11 30 30 100 128 67 16 16 34 65 76 76 69 6 nan nan nan nan nan nan nan nan nan nan
4 3 5 6 6 4 2 4 3 3 1 3 5 5 3 4 4 4 7 6 6 6 6 9 9 6 7 13 16 16 9 5 16 16 15 6 10 10 40 43 43 49 59 65 65 75 68 69 69 82 87 88 56 56 33 16 16 21 23 18 18 11 8 20 20 101 150 61 24 24 32 49 38 38 39 5 nan nan nan nan nan nan nan nan nan nan
5 3 5 3 3 4 5 5 3 3 2 3 0 0 2 2 0 0 2 10 10 13 15 15 15 12 14 18 9 9 9 2 5 5 6 6 8 8 18 26 26 33 30 45 45 47 48 52 52 85 98 113 100 100 47 30 30 27 25 24 24 14 10 10 10 49 113 88 33 33 34 36 31 31 38 3 nan nan nan nan nan nan nan 0 0 0
10 8 6 3 3 1 2 6 9 9 8 4 2 2 4 3 3 3 5 9 9 12 10 7 7 12 16 14 21 21 20 13 11 11 2 nan 1 1 8 11 11 21 34 35 35 28 34 34 34 40 61 86 109 109 85 55 55 27 24 22 22 22 14 2 2 8 102 107 64 64 44 40 54 54 47 7 nan nan nan nan nan nan nan nan nan 0
9 7 5 3 3 2 5 12 8 8 4 3 2 2 2 4 5 5 7 9 9 13 11 12 12 13 9 14 15 15 14 12 16 16 13 nan nan nan 4 8 8 19 28 23 23 25 22 26 26 20 33 48 82 82 99 81 81 47 31 26 26 29 17 4 4 14 121 108 71 71 54 51 71 71 65 12 nan nan nan nan nan nan nan nan nan nan
7 6 5 5 5 6 9 6 2 2 1 3 0 0 1 2 10 10 11 9 9 19 22 18 18 15 15 18 17 17 15 13 14 14 16 15 0 0 4 8 8 11 20 16 16 19 18 25 25 19 24 26 49 49 80 86 86 68 44 38 38 33 23 14 14 38 152 123 77 77 64 53 87 87 82 14 nan nan nan nan nan nan nan nan nan nan
2 3 5 5 5 4 3 3 1 1 0 1 1 1 2 6 13 13 12 11 11 22 19 21 21 16 18 26 24 24 30 31 28 28 26 29 29 29 15 13 13 9 15 18 18 20 23 19 19 19 17 17 32 32 53 63 63 64 56 41 41 30 27 20 20 37 136 126 107 107 79 67 97 97 86 26 nan nan nan nan nan nan nan nan nan nan
3 2 5 3 3 2 6 5 1 1 0 2 4 4 6 6 9 9 10 12 12 18 18 16 16 14 19 26 24 24 24 34 46 46 59 60 51 51 39 26 26 18 17 17 17 18 16 16 16 16 15 16 21 21 36 49 49 66 51 33 33 25 22 18 18 29 110 137 99 99 85 84 106 106 78 23 nan nan nan nan nan nan nan nan nan nan
3 2 3 3 3 2 2 2 0 0 1 4 5 5 4 5 6 6 7 7 7 9 13 17 17 12 15 16 16 16 21 24 31 31 56 87 90 90 70 52 52 42 21 19 19 17 19 16 16 18 17 15 21 21 27 40 40 55 47 31 31 21 20 18 18 24 93 151 126 126 87 75 100 100 63 20 nan nan nan nan nan 1 1 nan nan nan
4 4 2 1 1 1 1 1 nan nan 1 1 3 3 4 5 3 3 5 5 5 6 12 7 7 8 13 15 17 17 18 26 27 27 36 67 107 107 112 102 102 75 49 38 38 31 28 21 21 24 18 14 18 18 21 25 25 39 34 26 26 22 20 16 16 16 76 149 63 63 59 87 78 78 58 9 nan nan nan nan nan 0 1 nan nan nan
3 5 3 2 2 1 2 0 0 0 0 3 4 4 4 8 27 27 8 4 4 4 7 12 12 14 13 12 17 17 23 23 25 25 33 54 84 84 118 125 125 98 79 57 57 40 41 44 44 34 16 12 13 13 18 18 18 26 28 24 24 21 20 17 17 16 67 109 0 0 3 100 82 82 50 1 nan nan nan nan nan 1 1 nan nan nan
6 2 1 0 0 nan 1 0 0 0 1 1 2 2 3 4 7 7 4 3 3 6 6 8 8 14 14 12 12 12 16 18 21 21 29 46 70 70 100 124 124 102 89 62 62 48 39 42 42 46 39 25 12 12 15 15 15 17 20 19 19 25 26 23 23 24 81 113 2 2 nan 44 58 58 34 0 0 0 nan nan nan nan nan nan nan nan
5 2 2 0 0 nan 0 0 1 1 0 0 2 2 5 3 3 3 5 4 4 3 5 12 12 11 11 15 14 14 16 15 23 23 27 47 74 74 91 114 114 105 92 55 55 36 23 21 21 29 39 41 23 23 13 15 15 11 15 17 17 25 29 33 33 38 82 117 35 35 0 12 45 45 20 nan 0 0 nan nan nan nan nan nan nan nan
CIN
nan nan nan nan nan nan nan nan nan nan nan nan nan nan nan nan nan nan nan nan nan nan nan nan nan nan nan nan nan nan nan nan nan nan nan nan nan nan nan nan nan -24 -24 -25 -25 -24 -21 nan nan nan nan -22 -15 -15 -7 -3 -3 -2 -1 -3 -3 -2 -0 -0 -0 -0 -2 -3 -3 -3 -1 -10 nan nan nan nan nan nan nan -92 -92 -70 -69 -59 -59 -28
nan nan nan nan nan nan nan nan nan nan nan nan nan nan nan nan nan nan nan nan nan nan nan nan nan nan nan nan nan nan nan nan nan nan nan nan nan nan nan nan nan nan -24 -21 -21 -22 -21 -19 -19 -18 -18 nan nan nan -18 -10 -10 -5 -3 -3 -3 -2 -2 -0 -0 -0 -1 -1 -4 -4 -7 -15 nan nan nan nan nan nan nan nan nan -51 -55 -46 -46 -22
nan nan nan nan nan nan nan nan nan nan nan nan nan nan nan nan nan nan nan nan nan nan nan nan nan nan nan nan nan nan nan nan nan nan nan nan nan nan nan nan nan nan nan -22 -22 -20 -19 -18 -18 -17 -17 -18 nan nan nan nan nan -19 -13 -8 -8 -6 -6 -3 -3 -3 -3 -3 -7 -7 -18 nan nan nan nan nan nan nan nan nan nan -38 -31 -31 -31 -12
-0 nan nan nan nan nan nan nan nan nan nan nan nan nan nan nan nan nan nan nan nan nan nan nan nan nan nan nan nan nan nan nan nan nan nan nan nan nan nan nan nan nan nan -23 -23 -20 -16 -16 -16 -16 -15 -16 -18 -18 nan nan nan nan nan nan nan nan -18 -13 -13 -11 -10 -13 nan nan nan nan nan nan nan nan nan nan nan nan nan nan -0 -0 -0 -2
-0 nan nan nan nan nan nan nan nan nan nan nan nan nan nan -0 nan nan nan -0 -0 nan nan nan nan nan nan nan nan nan nan nan nan nan nan nan nan nan nan nan nan nan nan nan nan -22 -18 -15 -15 -14 -15 -14 -16 -16 -19 nan nan nan nan nan nan nan nan nan nan -32 -27 nan nan nan nan nan nan nan nan nan nan nan nan nan nan nan -0 -0 -0 -0
-0 -0 -0 -0 -0 nan nan -0 -0 -0 -0 -0 -0 -0 -0 -0 -0 -0 -0 -0 -0 -0 -0 -0 -0 nan nan nan nan nan nan nan nan nan nan nan nan nan nan nan nan nan nan nan nan nan nan -21 -21 -17 -16 -16 -15 -15 -17 nan nan nan nan nan nan nan nan nan nan nan nan nan nan nan nan nan nan nan nan nan nan nan -55 -1 -1 -1 -0 -0 -0 -0
-0 -0 -0 -0 -0 -0 -0 -0 -0 -0 -0 -0 -0 -0 -0 -0 -0 -0 -0 -0 -0 -0 -0 -0 -0 nan nan nan nan nan nan nan nan nan nan nan nan nan nan nan nan nan nan nan nan nan nan nan nan nan nan nan nan nan nan nan nan nan nan nan nan nan nan nan nan nan nan nan nan nan nan nan nan nan nan nan nan nan -70 -32 -32 -1 -1 -0 -0 -0
-0 -0 -0 -0 -0 -0 -0 -0 -0 -0 -0 -0 -0 -0 -0 -0 -0 -0 -0 -2 -2 -0 -0 -0 -0 -0 -0 -0 -0 -0 -0 nan nan nan nan nan nan nan -9 -11 -11 -15 -17 -18 -18 -22 -23 -25 -25 -27 -28 -28 -26 -26 -24 nan nan nan nan nan nan nan nan nan nan nan nan nan nan nan nan nan nan nan nan nan nan nan nan -78 -78 -3 -1 -0 -0 -0
-1 -0 -0 -0 -0 -0 -0 -0 -0 -0 -0 -0 -0 -0 nan nan nan nan -0 -0 -0 -0 -0 -0 -0 -0 -0 -0 -0 -0 -0 -0 nan nan nan nan nan nan nan -4 -4 -2 -8 -12 -12 -14 -16 -18 -18 -21 -24 -25 -25 -25 -26 -30 -30 nan nan nan nan nan nan nan nan nan nan nan nan nan nan nan nan nan nan nan nan nan nan nan nan nan -2 -1 -1 -0
-2 -0 -0 -0 -0 -0 -0 -0 -0 -0 -0 -0 -0 -0 -0 -0 -0 -0 -0 -0 -0 -0 -0 -0 -0 -0 -0 -0 -0 -0 -0 -0 -0 -0 -0 -16 -1 -1 -19 -23 -23 -16 -11 -9 -9 -10 -13 -15 -15 -17 -22 -24 -26 -26 -30 -36 -36 -40 nan nan nan nan nan nan nan nan nan nan nan nan nan nan nan nan nan nan nan nan nan nan nan nan -76 -2 -2 -1
-0 -0 -0 -0 -0 -0 -0 -0 -0 -0 -0 -0 -0 -0 -0 -0 -0 -0 -0 -0 -0 -0 -0 -0 -0 -0 -0 -0 -0 -0 -0 -0 -0 -0 -0 -15 -19 -19 -20 -22 -22 -20 -18 -12 -12 -13 -16 -19 -19 -22 -24 -27 -30 -30 -35 -40 -40 -46 nan nan nan nan nan nan nan nan nan nan nan nan nan nan nan nan nan nan nan nan nan nan nan nan nan nan nan -2
-0 -0 -0 -0 -0 -0 -0 -0 -0 -0 -0 -0 -0 -0 -0 -0 -0 -0 -0 -0 -0 -0 -0 -0 -0 -0 -0 -0 -0 -0 -0 -0 -0 -0 -6 -16 -15 -15 -0 nan nan -9 -15 -13 -13 -15 -20 -25 -25 -26 -24 -22 -30 -30 -37 -39 -39 -48 nan nan nan nan nan nan nan nan nan nan nan nan nan nan nan nan nan nan nan nan nan nan nan nan nan nan nan nan
-0 -0 -0 -0 -0 -0 -0 -0 -0 -0 -0 -0 -0 -0 -0 -0 -0 -0 -0 -0 -0 -0 -0 -0 -0 -0 -4 -2 -0 -0 -0 -0 -0 -0 -0 -1 -0 -0 -0 -0 -0 nan -4 -0 -0 -3 -18 -22 -22 -25 -28 -23 -28 -28 -39 -40 -40 -45 nan nan nan nan nan nan nan nan nan nan nan nan nan nan nan nan nan nan nan nan nan nan nan nan nan nan nan nan
-0 -0 -0 -0 -0 -0 -0 -0 -0 -0 -0 -0 -0 -0 -0 -0 -0 -0 -0 -0 -0 -0 -0 -0 -0 -0 -0 -0 -2 -2 -0 -0 -0 -0 -0 -0 -11 -11 -1 -0 -0 -0 -0 -0 -0 -0 -18 -25 -25 -19 -33 -26 -26 -26 -30 -34 -34 -40 -40 -40 -40 nan nan nan nan nan nan nan nan nan nan nan nan nan nan nan nan nan nan nan nan nan nan nan nan nan
-0 -0 -0 -0 -0 -0 -0 -0 -0 -0 -0 -0 -0 -0 -0 -0 -0 -0 -0 -0 -0 -0 -0 -0 -0 -0 -0 -0 -2 -2 -0 -0 -0 -0 -0 -0 -10 -10 -8 -0 -0 -0 -0 -0 -0 -0 -27 -21 -21 -6 -10 -6 -10 -10 -35 -25 -25 -34 -36 -37 -37 -39 nan nan nan nan nan nan nan nan nan nan nan nan nan nan nan nan nan nan nan nan nan nan nan nan
-0 -0 -0 -0 -0 -0 -0 -0 -0 -0 -0 -0 -0 -0 -0 -0 -0 -0 -1 -0 -0 -7 -5 -6 -6 -0 -0 -0 -0 -0 -0 -0 -0 -0 -0 -0 -0 -0 -16 -5 -5 -0 -0 -0 -0 -12 -27 -10 -10 -3 -2 -1 -14 -14 -38 -21 -21 -28 -30 -33 -33 -40 -44 nan nan nan nan nan nan nan nan nan nan nan nan nan nan nan nan nan nan nan nan nan nan nan
-0 -0 -0 -0 -0 -0 -0 -0 -0 -0 -0 -0 -0 -0 -0 -0 -1 -1 -7 -4 -4 -13 -5 -4 -4 -6 -6 -0 -0 -0 -0 -0 -0 -0 -0 -0 -0 -0 -18 -2 -2 -0 -0 -0 -0 -0 -14 -10 -10 -21 -14 -6 -5 -5 -3 -1 -1 -1 -4 -15 -15 -28 -36 nan nan nan nan nan nan nan nan nan nan nan nan nan nan nan nan nan nan nan nan nan nan nan
-0 -0 -0 -0 -0 -0 -0 -3 -0 -0 -6 -0 -0 -0 -4 -6 -6 -6 -7 -9 -9 -8 -0 -3 -3 -6 nan -0 -0 -0 -0 -2 -0 -0 -0 -0 -0 -0 -26 -12 -12 -0 -0 -1 -1 -0 -2 -15 -15 -42 -43 -22 -15 -15 -11 -5 -5 -1 -1 -1 -1 -6 -20 -38 -38 nan nan nan nan nan nan nan nan nan nan nan nan nan nan nan nan nan nan nan nan nan
-0 -0 -0 -0 -0 -0 -0 -0 -0 -0 -0 -3 -6 -6 -7 -0 -4 -4 -5 -4 -4 -6 -3 -4 -4 -7 -9 -0 -0 -0 -1 -3 -5 -5 -0 -0 -0 -0 -2 -1 -1 -0 -0 -8 -8 -9 -16 -35 -35 -31 -26 nan -51 -51 -42 -14 -14 -10 -6 -4 -4 -4 -12 -33 -33 nan nan nan nan nan nan nan nan nan nan nan nan nan nan nan nan nan nan nan nan nan
-0 -0 -0 -0 -0 -2 -0 -0 -0 -0 -0 -0 -9 -9 -4 -5 -8 -8 -3 -9 -9 -8 -9 -5 -5 -4 -7 -3 -0 -0 -0 -0 -6 -6 -6 -0 -0 -0 -0 -0 -0 -0 -0 -3 -3 -4 -8 -39 -39 -35 -28 -27 nan nan nan nan nan -15 -14 -13 -13 -10 -8 -10 -10 nan nan nan nan nan nan nan nan nan nan nan nan nan nan nan nan nan nan nan nan nan
-0 -0 -0 -3 -3 -0 -0 -0 -0 -0 -0 -5 -6 -6 -2 -5 -6 -6 -4 -6 -6 -7 -5 -4 -4 -6 -7 -5 -3 -3 -6 -2 -2 -2 -5 -3 -0 -0 -0 -1 -1 -0 -0 -0 -0 -0 -5 -27 -27 -24 -21 -17 nan nan nan nan nan nan -20 -22 -22 -21 -16 -10 -10 -6 nan nan nan nan nan nan nan nan nan nan nan nan nan nan nan nan nan nan nan nan
-0 -0 -0 -0 -0 -0 -0 -0 -0 -0 -0 -6 -4 -4 -3 -4 -0 -0 -2 -4 -4 -4 -0 -5 -5 -5 -7 -8 -9 -9 -15 -9 -2 -2 -8 -6 -0 -0 -0 -0 -0 -0 -0 -0 -0 -0 -11 -17 -17 -11 -2 -9 -13 -13 nan nan nan nan nan nan nan -29 -27 -19 -19 -11 -5 nan nan nan nan nan nan nan nan nan nan nan nan nan nan nan nan nan nan nan
-0 -0 -0 -0 -0 -0 -0 -0 -0 -0 -0 -4 -0 -0 -3 -5 -4 -4 -4 -2 -2 -3 -5 -7 -7 -6 -7 -8 -6 -6 -8 -3 -6 -6 -9 -6 -0 -0 -0 -2 -2 -3 -0 -0 -0 -0 -0 -0 -0 -0 -5 -7 -9 -9 nan nan nan nan nan nan nan nan -32 -28 -28 -19 -9 nan nan nan nan nan nan nan nan nan nan nan nan nan nan nan nan nan nan nan
-0 -0 -0 -0 -0 -2 -4 -5 -2 -2 -2 -5 -6 -6 -5 -4 -3 -3 -4 -3 -3 -3 -4 -9 -9 -7 -9 -4 -3 -3 -0 -2 -4 -4 -6 -0 -0 -0 -0 -1 -1 -0 -0 -0 -0 -0 -2 -0 -0 -0 -5 -8 -8 -8 -10 nan nan nan nan nan nan nan nan -32 -32 -26 -16 -9 nan nan nan nan nan nan nan nan nan nan nan nan nan nan nan nan nan nan
-0 -1 -2 -3 -3 -3 -3 -4 -1 -1 -5 -6 -3 -3 -2 -1 -1 -1 -1 -2 -2 -2 -3 -4 -4 -5 -9 -2 -4 -4 -0 -0 -9 -9 -7 -0 -4 -4 -0 -0 -0 -0 -0 -0 -0 -0 -0 -0 -0 -0 -6 -8 -9 -9 -10 -12 -12 nan nan nan nan nan nan -35 -35 -31 -24 -14 nan nan nan nan nan nan nan nan nan nan nan nan nan nan nan nan nan nan
-0 -0 -0 -0 -0 -0 -0 -0 -0 -0 -0 -3 -6 -6 -5 -2 -2 -2 -3 -3 -3 -4 -3 -4 -4 -7 -6 -4 -6 -6 -6 -3 -14 -14 -10 -7 -7 -7 -0 -0 -0 -5 -0 -0 -0 -0 -0 -0 -0 -0 -0 -0 -7 -7 -11 -14 -14 -17 -20 nan nan nan nan -36 -36 -35 -31 -23 nan nan nan nan nan nan nan nan nan nan nan nan nan nan nan nan nan nan
-0 -0 -0 -0 -0 -0 -0 -0 -0 -0 -0 -0 -2 -2 -5 -2 -3 -3 -3 -3 -3 -6 -4 -3 -3 -3 -0 -4 -5 -5 -0 -1 -12 -12 -10 -4 -4 -4 -4 -0 -0 -2 -0 -0 -0 -0 -0 -0 -0 -0 -0 -0 -6 -6 -11 -16 -16 -20 -22 -25 -25 -27 -30 nan nan -37 -33 -28 -23 -23 nan nan nan nan nan nan nan nan nan nan nan nan nan nan nan nan
-0 -0 -0 -0 -0 -0 -0 -0 -0 -0 -0 -0 -0 -0 -0 -4 -2 -2 -0 -0 -0 -1 -2 -0 -0 -0 -0 -2 -1 -1 -0 -2 -5 -5 -12 -2 -1 -1 -4 -0 -0 -6 -7 -4 -4 -0 -0 -0 -0 -0 -0 -0 -4 -4 -12 -16 -16 -20 -22 -24 -24 -26 nan nan nan nan nan -36 -27 -27 -25 -30 nan nan nan nan nan nan nan nan nan nan nan nan nan nan
-0 -0 -0 -0 -0 -0 -0 -0 -0 -0 -0 -0 -0 -0 -0 -4 -0 -0 -0 -0 -0 -0 -0 -0 -0 -0 -0 -0 -0 -0 -0 -0 -0 -0 -16 -3 -2 -2 -4 -1 -1 -0 -2 -9 -9 -0 -0 -0 -0 -0 -0 -1 -8 -8 -17 -16 -16 -17 -20 -21 -21 nan nan nan nan nan nan nan nan nan nan -27 -31 -31 nan nan nan nan nan nan nan nan nan nan nan nan
-0 -0 -0 -0 -0 -0 -0 -0 -0 -0 -0 -0 -0 -0 -0 -4 -2 -2 -0 -0 -0 -2 -0 -0 -0 -0 -0 -0 -0 -0 -0 -0 -0 -0 -18 -7 -2 -2 -1 -3 -3 -5 -5 -6 -6 -5 -6 -0 -0 -0 -3 -0 -1 -1 -1 -10 -10 -17 -14 -20 -20 -25 nan nan nan nan nan nan nan nan nan nan nan nan -34 nan nan nan nan nan nan nan nan nan nan nan
-0 -0 -0 -0 -0 -0 -0 -0 -0 -0 -0 -0 -0 -0 -0 -0 -3 -3 -0 -3 -3 -2 -0 -0 -0 -0 -0 -0 -0 -0 -0 -0 -0 -0 -12 -11 -3 -3 -1 -4 -4 -3 -4 -0 -0 -2 -6 -4 -4 -8 -7 -0 -0 -0 -0 -0 -0 -1 -3 -10 -10 -16 -34 nan nan nan nan nan nan nan nan nan nan nan nan nan nan nan nan nan nan nan nan nan nan nan
-0 -0 -0 -0 -0 -0 -0 -0 -0 -0 -0 -0 -0 -0 -0 -0 -0 -0 -3 -6 -6 -2 -0 -0 -0 -0 -0 -0 -0 -0 -0 -0 -0 -0 -0 -14 -3 -3 -0 -0 -0 -1 -2 -6 -6 -1 -3 -4 -4 -0 -13 -8 -0 -0 -0 -0 -0 -4 -3 -0 -0 -5 -23 -29 -29 -22 -12 -19 nan nan nan nan nan nan nan nan nan nan nan nan nan nan nan -11 -11 nan
-0 -0 -0 -0 -0 -0 -0 -0 -0 -0 -0 -0 -0 -0 -0 -0 -0 -0 -3 -7 -7 -5 -2 -0 -0 -0 -0 -0 -0 -0 -0 -0 -0 -0 -0 -11 -3 -3 -0 -0 -0 -0 -0 -4 -4 -3 -3 -4 -4 -2 -0 -2 -0 -0 -0 -0 -0 -0 -0 -0 -0 -0 -9 -17 -17 -8 -2 -2 -4 -4 -28 nan nan nan nan nan nan nan nan nan nan nan nan -9 -9 nan
-0 -0 -0 -0 -0 -0 -0 -0 -0 -0 -0 -0 -0 -0 -0 nan -2 -2 -2 -4 -4 -5 -5 -2 -2 -0 -0 -0 -0 -0 -0 -0 -0 -0 -1 -4 -1 -1 -1 -1 -1 -0 -3 -4 -4 -3 -2 -5 -5 -8 -8 -5 -5 -5 -2 -0 -0 -3 -3 -0 -0 -3 -1 -14 -14 -8 -3 -1 -0 -0 -4 -10 nan nan nan nan nan nan nan nan nan nan nan nan nan nan
-0 -0 -0 -0 -0 -0 -0 -0 -0 -0 -0 -0 -0 -0 -0 -2 -4 -4 -9 -8 -8 -7 -4 -3 -3 -3 -1 -0 -0 -0 -0 -0 -0 -0 -4 -1 -0 -0 -0 -0 -0 -1 -2 -0 -0 -3 -0 -3 -3 -5 -6 -7 -2 -2 -10 -5 -5 -0 -0 -1 -1 -1 -0 -5 -5 -8 -4 -1 -0 -0 -3 -4 -5 -5 nan nan nan nan nan nan nan nan nan nan nan nan
-0 -0 -0 -0 -0 -0 -0 -0 -0 -0 -0 -0 -0 -0 -0 -5 -7 -7 -10 -10 -10 -6 -2 -4 -4 -4 -2 -1 -0 -0 -0 -0 -0 -0 -1 -1 -0 -0 -0 -1 -1 -0 -0 -0 -0 -0 -0 -4 -4 -3 -5 -6 -9 -9 -9 -5 -5 -7 -11 -4 -4 -4 -1 -1 -1 -3 -2 -0 -0 -0 -4 -5 -6 -6 -6 nan nan nan nan nan nan nan nan nan nan nan
-0 -0 -0 -0 -0 -0 -0 -0 -0 -0 -0 -0 -2 -2 -5 -9 -14 -14 -12 -12 -12 -7 -4 -2 -2 -3 -1 -2 -2 -2 -1 -0 -0 -0 -0 -1 -0 -0 -0 -1 -1 -0 -0 -0 -0 -0 -0 -2 -2 -0 -1 -4 -4 -4 -4 -6 -6 -5 -4 -8 -8 -13 -8 -4 -4 -3 -0 -0 -1 -1 -5 -6 -6 -6 -8 nan nan nan nan nan nan nan nan nan nan nan
-0 -0 -0 -0 -0 -0 -0 -0 -0 -0 -0 -0 -3 -3 -7 -13 -18 -18 -12 -12 -12 -6 -6 -5 -5 -6 -1 -0 -2 -2 -2 -1 -1 -1 -0 -1 -0 -0 -0 -1 -1 -0 -0 -0 -0 -0 -0 -0 -0 -0 -0 -4 -0 -0 -0 -2 -2 -3 -4 -11 -11 -18 -19 -14 -14 -7 -1 -1 -3 -3 -7 -6 -4 -4 -4 -12 nan nan nan nan nan nan nan nan nan nan
-0 -0 -0 -0 -0 -0 -0 -0 -0 -0 -0 -1 -3 -3 -7 -8 -12 -12 -12 -9 -9 -6 -6 -4 -4 -5 -5 -3 -1 -1 -1 -1 -1 -1 -1 -2 -1 -1 -1 -1 -1 -1 -1 -1 -1 -0 -0 -0 -0 -0 -1 -1 -0 -0 -3 -4 -4 -3 -6 -9 -9 -13 -18 -18 -18 -9 -3 -1 -8 -8 -8 -4 -2 -2 -2 -8 nan nan nan nan nan nan nan nan nan nan
-0 -0 -0 -0 -0 -0 -0 -0 -0 -0 -2 -3 -2 -2 -4 -2 -7 -7 -8 -5 -5 -4 -3 -3 -3 -4 -3 -2 -1 -1 -4 -8 -3 -3 -4 -6 -5 -5 -1 -2 -2 -2 -0 -2 -2 -2 -2 -0 -0 -0 -0 -0 -0 -0 -1 -7 -7 -7 -8 -6 -6 -2 -8 -18 -18 -8 -2 -1 -10 -10 -10 -4 -2 -2 -3 -11 nan nan nan nan nan nan nan nan nan nan
-0 -0 -0 -0 -0 -0 -0 -0 -0 -0 -2 -4 -5 -5 -4 -4 -7 -7 -6 -2 -2 -1 -3 -3 -3 -4 -3 -3 -5 -5 -4 -10 -7 -7 -6 -4 -4 -4 -1 -2 -2 -2 -3 -1 -1 -2 -3 -2 -2 -0 -0 -0 -0 -0 -1 -2 -2 -0 -8 -6 -6 -5 -11 -22 -22 -13 -3 -1 -8 -8 -14 -8 -4 -4 -4 -19 nan nan nan nan nan nan nan -49 -49 -31
-0 -0 -0 -0 -0 -0 -0 -0 -0 -0 -0 -3 -5 -5 -4 -4 -6 -6 -6 -3 -3 -2 -4 -7 -7 -4 -4 -7 -6 -6 -6 -8 -9 -9 -12 nan -7 -7 -3 -2 -2 -2 -1 -2 -2 -4 -2 -3 -3 -3 -2 -1 -0 -0 -0 -0 -0 -6 -6 -9 -9 -7 -10 -21 -21 -19 -3 -1 -3 -3 -16 -6 -2 -2 -3 -16 nan nan nan nan nan nan nan nan nan -37
-0 -0 -0 -0 -0 -0 -1 -0 -1 -1 -3 -3 -5 -5 -5 -4 -4 -4 -5 -4 -4 -3 -4 -4 -4 -4 -5 -4 -5 -5 -13 -18 -9 -9 -10 nan nan nan -4 -2 -2 -1 -1 -2 -2 -3 -3 -1 -1 -5 -3 -4 -1 -1 -0 -0 -0 -3 -5 -10 -10 -3 -10 -18 -18 -15 -3 -1 -4 -4 -11 -5 -2 -2 -2 -11 nan nan nan nan nan nan nan nan nan nan
-0 -0 -0 -0 -0 -0 -0 -0 -4 -4 -3 -2 -6 -6 -6 -6 -3 -3 -3 -4 -4 -1 -0 -3 -3 -4 -3 -2 -4 -4 -7 -13 -13 -13 -11 -11 -16 -16 -6 -3 -3 -1 -1 -3 -3 -3 -3 -0 -0 -2 -0 -5 -3 -3 -1 -1 -1 -2 -5 -6 -6 -7 -8 -13 -13 -9 -1 -0 -1 -1 -8 -6 -2 -2 -2 -10 nan nan nan nan nan nan nan nan nan nan
-0 -0 -0 -0 -0 -1 -0 -0 -4 -4 -6 -4 -7 -7 -6 -6 -3 -3 -3 -3 -3 -1 -2 -2 -2 -2 -2 -0 -2 -2 -4 -7 -12 -12 -14 -8 -7 -7 -6 -3 -3 -2 -1 -2 -2 -3 -2 -2 -2 -1 -0 -5 -5 -5 -2 -2 -2 -2 -3 -8 -8 -11 -13 -17 -17 -9 -1 -0 -0 -0 -4 -6 -2 -2 -0 -0 nan nan nan nan nan nan nan nan nan nan
-0 -0 -0 -1 -1 -0 -0 -0 -3 -3 -5 -5 -4 -4 -5 -7 -6 -6 -4 -3 -3 -0 -1 -2 -2 -1 -0 -0 -1 -1 -4 -4 -9 -9 -9 -7 -5 -5 -4 -2 -2 -1 -0 -2 -2 -4 -5 -4 -4 -2 -0 -3 -5 -5 -3 -2 -2 -0 -6 -12 -12 -13 -15 -19 -19 -11 -1 -0 -0 -0 -3 -6 -2 -2 -0 -0 nan nan nan nan nan nan nan nan nan nan
-3 -2 -0 -0 -0 -0 -0 -3 -7 -7 -5 -2 -2 -2 -6 -9 -8 -8 -7 -5 -5 -3 -2 -1 -1 -0 -0 -1 -2 -2 -2 -2 -5 -5 -8 -5 -3 -3 -4 -4 -4 -1 -2 -2 -2 -2 -3 -6 -6 -3 -4 -6 -3 -3 -0 -0 -0 -1 -5 -10 -10 -13 -12 -13 -13 -11 -3 -0 -0 -0 -3 -9 -1 -1 -0 -0 nan nan nan nan nan -3 -4 nan nan nan
-2 -2 -3 -3 -3 -4 -5 -5 nan nan -6 -4 -3 -3 -5 -8 -8 -8 -7 -6 -6 -3 -1 -2 -2 -2 -1 -1 -0 -0 -1 -0 -0 -0 -4 -5 -2 -2 -2 -2 -2 -1 -1 -1 -1 -0 -1 -5 -5 -5 -4 -5 -2 -2 -0 -0 -0 -1 -7 -10 -10 -10 -10 -11 -11 -12 -4 -0 -8 -8 -13 -5 -1 -1 -0 -5 nan nan nan nan nan -3 -5 nan nan nan
-1 -0 -3 -2 -2 -2 -2 -6 -7 -7 -6 -3 -2 -2 -6 -4 -0 -0 -4 -6 -6 -4 -2 -0 -0 -1 -1 -0 -1 -1 -0 -1 -1 -1 -1 -4 -4 -4 -1 -0 -0 -0 -1 -1 -1 -1 -0 -0 -0 -0 -1 -4 -4 -4 -1 -2 -2 -3 -8 -11 -11 -10 -8 -10 -10 -11 -3 -2 -61 -61 -53 -3 -1 -1 -0 -9 nan nan nan nan nan -3 -4 nan nan nan
-0 -2 -5 -4 -4 nan -4 -4 -5 -5 -5 -5 -4 -4 -7 -7 -6 -6 -7 -6 -6 -3 -1 -1 -1 -0 -0 -1 -2 -2 -1 -2 -2 -2 -1 -2 -3 -3 -1 -0 -0 -0 -0 -0 -0 -1 -2 -2 -2 -0 -0 -0 -2 -2 -1 -2 -2 -3 -6 -11 -11 -8 -7 -8 -8 -8 -2 -1 -51 -51 nan -8 -1 -1 -0 -11 -1 -1 nan nan nan nan nan nan nan nan
-1 -4 -5 -5 -5 nan -6 -4 -3 -3 -4 -5 -4 -4 -4 -5 -7 -7 -5 -4 -4 -3 -2 -0 -0 -0 -0 -0 -0 -0 -1 -2 -0 -0 -1 -1 -2 -2 -1 -0 -0 -0 -0 -0 -0 -0 -1 -1 -1 -1 -0 -0 -0 -0 -1 -0 -0 -4 -6 -9 -9 -8 -6 -5 -5 -6 -3 -1 -12 -12 -41 -19 -0 -0 -0 nan -1 -1 nan nan nan nan nan nan nan nan
Wind_Speed
7 8 8 10 11 11 10 12 13 13 12 11 10 10 11 11 12 13 15 16 16 16 16 16 17 18 19 21 23 24 25 26 26 27 27 27 27 27 26 26 26 26 26 26 26 26 26 26 26 26 26 27 27 27 28 29 29 29 29 29 30 30 31 31 30 29 28 27 26 26 26 26 26 26 27 29 30 32 32 31 31 30 31 31 32 33
8 8 8 10 12 11 10 12 12 12 12 12 12 11 12 13 13 12 13 14 15 16 15 15 16 18 20 20 22 24 25 26 27 27 28 28 28 28 28 28 27 27 26 26 26 26 26 26 26 26 26 27 27 27 27 28 28 28 29 29 29 30 30 30 30 30 29 28 27 27 26 25 24 25 26 30 33 35 36 35 34 32 31 32 33 35
8 8 8 9 10 11 10 11 11 12 13 13 13 13 15 16 14 12 11 12 13 13 13 14 15 16 18 19 21 23 24 26 27 27 27 28 28 28 28 28 28 27 27 26 26 26 26 26 27 27 27 27 27 27 27 27 27 27 28 28 28 28 29 29 29 29 28 28 27 27 26 25 24 23 25 29 34 37 39 39 38 36 34 34 35 36
9 8 8 8 8 10 10 10 11 11 11 12 14 15 16 15 13 12 11 12 12 12 13 14 15 15 16 16 18 21 24 25 26 27 27 28 28 28 28 28 28 28 28 28 28 27 27 27 27 27 27 27 27 27 27 27 27 27 27 27 27 27 27 27 28 27 27 27 26 26 25 25 24 24 25 28 32 36 39 40 40 39 37 36 36 37
8 8 9 8 8 9 10 10 11 11 11 12 13 14 14 12 11 11 11 12 13 13 12 13 14 15 14 14 16 19 23 25 27 28 28 29 29 29 30 30 30 30 30 30 30 30 29 29 28 28 28 28 28 28 28 27 27 27 27 27 27 26 26 27 27 27 26 26 25 25 25 25 25 25 25 28 31 35 38 39 39 39 39 38 37 37
8 8 8 8 8 8 8 9 10 10 11 11 11 12 11 11 11 11 11 11 12 12 12 12 13 14 14 15 17 20 23 25 27 28 28 29 29 30 30 31 31 31 32 32 32 32 31 31 31 30 30 30 30 29 29 28 28 27 27 27 27 26 26 26 27 27 26 26 26 25 25 25 25 26 26 28 30 33 36 38 39 39 40 40 39 39
9 8 8 8 8 8 8 9 9 10 10 10 10 10 10 10 10 11 12 11 11 11 11 12 12 13 14 16 18 20 21 23 25 26 26 27 28 28 29 29 30 30 31 31 31 32 32 32 32 32 32 32 31 31 30 30 29 28 28 27 27 27 27 27 27 27 27 26 26 25 25 25 26 27 27 29 31 33 35 37 38 39 40 40 41 41
9 9 8 8 8 8 8 8 9 9 10 10 10 10 10 9 10 11 12 12 12 11 11 12 12 12 13 14 15 16 17 18 18 19 21 22 23 24 25 26 27 28 28 29 29 30 30 31 31 31 32 32 32 32 31 31 30 29 28 28 28 27 27 27 27 27 27 27 27 26 25 25 26 26 27 29 31 33 35 37 38 39 39 39 40 40
10 10 9 9 9 9 9 9 9 9 9 9 10 10 11 11 11 10 11 11 11 10 10 11 11 11 12 12 13 14 15 15 15 15 17 17 18 19 22 23 24 26 27 27 28 28 28 29 29 29 30 30 31 31 31 30 30 30 29 29 28 28 28 28 28 28 28 28 27 27 26 25 25 26 26 28 30 32 34 36 37 37 38 38 38 39
10 10 10 9 8 8 9 9 9 9 10 10 10 10 10 11 12 11 11 10 10 9 9 10 11 12 12 12 12 13 14 16 17 19 20 19 20 21 21 22 22 23 26 27 28 29 29 29 28 28 28 29 29 29 29 29 29 29 29 29 29 29 28 28 28 28 28 28 28 27 27 26 26 25 25 26 28 30 33 34 35 36 36 36 37 37
9 9 9 9 8 8 8 9 9 9 10 10 10 10 9 10 10 11 12 12 11 10 10 10 11 12 12 12 12 12 13 14 15 17 19 20 22 23 22 22 22 23 25 26 27 28 29 29 29 28 28 27 27 27 27 28 28 28 29 29 29 29 29 29 28 28 29 29 28 28 27 27 26 26 25 25 26 28 30 32 33 34 35 35 36 37
9 8 8 8 8 8 8 9 9 8 9 9 9 9 9 8 9 10 12 12 12 12 12 11 11 11 12 12 12 12 12 13 13 13 14 15 16 17 18 18 19 20 21 22 24 25 27 27 27 27 26 26 26 26 26 26 27 27 28 29 29 29 29 29 29 29 29 29 29 29 28 28 27 27 26 26 26 27 28 30 32 33 34 35 35 36
8 8 8 8 8 9 9 9 8 8 8 8 9 10 10 8 8 9 10 12 12 12 12 12 12 11 11 12 12 12 12 13 13 12 12 12 12 12 13 13 13 14 14 15 16 18 21 23 24 24 24 24 24 24 24 25 26 27 27 28 29 29 29 29 29 29 29 29 29 29 28 28 28 27 27 26 27 27 28 29 30 32 34 35 35 35
8 8 8 9 9 9 9 9 9 9 9 9 9 10 10 9 9 9 10 11 11 11 11 13 13 12 11 11 12 12 12 12 12 12 12 12 12 11 12 12 12 12 12 12 13 14 16 18 18 19 21 22 23 23 23 24 25 26 26 27 28 29 29 29 30 30 29 29 29 29 28 28 28 28 27 27 27 28 28 28 29 30 33 34 34 34
9 9 9 10 10 9 9 9 10 10 10 9 9 10 10 10 10 10 11 12 11 11 11 13 13 13 11 10 11 11 12 12 12 12 13 12 12 11 12 12 12 12 11 12 12 13 13 13 13 14 15 19 21 22 22 22 23 24 25 26 27 28 29 29 30 30 30 29 29 29 28 28 28 27 27 27 27 28 29 29 29 30 31 32 33 34
9 9 10 10 10 10 9 9 10 10 11 10 10 10 11 11 10 10 10 11 11 10 10 11 12 12 11 10 10 11 12 12 11 11 13 12 11 11 11 12 12 12 11 12 12 11 10 10 11 12 13 17 19 21 21 22 22 22 23 24 25 26 28 29 29 30 30 30 29 29 28 28 27 27 27 27 27 28 30 30 30 30 30 31 32 33
9 9 10 11 11 11 10 10 10 10 10 10 10 10 10 10 10 9 9 10 9 9 8 9 10 11 10 9 9 9 10 11 11 11 12 13 12 11 11 12 13 13 12 12 12 11 10 11 11 11 12 15 18 20 21 22 22 22 23 23 24 25 26 28 29 30 30 30 29 29 28 28 27 27 27 26 27 27 29 30 30 30 29 30 31 32
9 9 10 11 11 11 10 10 10 10 10 10 10 10 9 9 9 9 9 9 9 9 9 9 9 9 10 10 8 7 8 11 11 11 12 13 12 11 11 12 13 13 13 13 12 12 12 12 12 12 14 19 21 22 23 22 23 23 23 23 23 24 25 26 27 29 29 30 29 29 28 28 27 27 27 26 26 27 28 29 29 29 29 29 30 32
10 10 10 11 11 10 10 10 10 10 10 9 9 9 10 10 10 10 10 10 10 10 11 11 11 10 10 11 11 10 9 11 12 12 12 13 12 12 11 12 13 14 14 14 13 13 12 12 13 16 19 23 25 26 26 25 25 24 24 23 23 23 24 25 26 28 29 29 29 29 28 28 27 27 27 26 26 27 27 28 28 29 29 29 30 31
12 11 10 10 11 11 11 11 11 10 11 10 10 10 10 11 11 11 11 11 10 10 10 11 12 12 11 13 13 12 10 11 11 12 12 13 13 12 11 13 14 14 14 14 13 13 13 12 13 15 19 22 25 27 27 27 26 26 25 24 23 23 23 24 26 27 28 29 29 29 28 28 28 27 27 27 27 27 27 28 28 29 29 29 30 31
13 13 11 10 10 11 11 11 11 12 13 12 11 11 11 11 12 12 11 11 11 11 11 12 12 12 11 12 13 12 10 11 11 11 10 11 12 11 10 12 13 14 15 14 13 13 13 13 13 13 16 21 24 26 27 27 27 27 27 26 25 23 23 23 25 26 28 29 29 29 28 28 28 28 27 27 27 27 27 28 28 29 30 30 31 32
13 13 13 13 12 12 12 13 14 15 16 15 14 12 11 11 12 13 12 12 13 13 13 13 13 13 13 14 14 13 11 11 12 11 9 11 12 12 10 11 13 14 15 14 13 13 14 14 13 14 17 21 24 26 27 28 28 27 27 27 26 25 23 23 24 25 27 28 28 29 28 28 28 28 28 27 27 27 27 28 29 29 30 31 32 32
13 14 14 14 13 13 13 14 15 15 15 14 13 12 11 11 13 14 14 13 13 14 14 14 14 15 15 15 15 14 13 12 12 11 10 12 13 13 11 11 12 13 14 13 13 13 14 14 14 15 18 22 24 26 27 28 28 28 27 27 26 25 24 24 24 24 26 27 28 28 28 29 29 28 28 28 27 27 27 28 29 30 30 31 32 33
14 14 14 13 13 13 12 12 12 12 11 11 11 11 11 12 12 13 12 13 13 13 13 14 15 16 16 16 16 15 13 13 12 11 10 12 13 12 11 11 12 14 14 13 13 13 14 14 14 14 15 20 23 25 26 27 28 28 28 27 26 26 25 24 24 24 25 25 26 27 27 28 28 28 28 28 27 27 27 28 29 30 31 31 32 33
13 13 13 13 14 15 15 15 15 15 14 12 12 12 12 13 14 14 13 13 13 13 13 14 15 16 15 14 14 13 12 12 12 11 9 10 11 12 11 11 12 13 14 13 13 13 13 14 14 13 14 17 20 24 25 26 27 27 27 27 26 26 25 24 24 24 24 24 25 25 26 27 27 28 28 27 27 27 27 28 29 30 30 31 32 32
17 18 19 21 24 26 28 29 28 28 27 22 18 15 14 14 14 14 14 14 13 13 13 14 15 15 14 12 12 11 10 10 11 10 8 8 10 11 11 11 11 12 13 12 12 13 13 13 14 13 13 15 18 21 23 25 26 26 26 26 26 26 25 25 24 24 23 23 23 24 24 26 26 27 27 27 27 28 28 28 29 29 30 31 31 32
26 27 29 31 32 33 34 34 34 35 35 32 27 22 18 15 14 14 15 13 13 13 14 15 15 15 14 13 12 11 10 10 9 9 8 8 9 11 11 10 11 12 13 12 12 12 14 14 13 13 13 13 14 17 21 23 24 24 25 25 26 26 26 25 25 25 24 23 23 23 24 25 26 26 26 27 27 28 28 28 29 29 29 28 27 28
27 28 29 30 31 31 32 32 32 32 32 32 31 29 23 16 14 14 15 13 13 13 14 14 15 14 13 13 12 11 11 10 9 8 8 7 8 9 10 10 11 11 11 10 11 12 14 14 13 13 13 13 13 14 17 20 22 23 23 24 25 26 27 27 27 26 25 24 23 23 23 24 25 26 26 27 27 28 28 29 28 28 27 24 20 18
24 25 26 27 27 28 28 28 27 27 28 29 28 26 21 15 13 14 14 12 12 13 14 14 14 14 13 13 13 12 12 11 11 10 8 7 8 9 9 10 10 10 9 8 9 10 12 12 12 12 12 13 13 12 13 16 18 19 20 22 24 25 26 27 27 27 27 26 25 24 23 24 25 26 26 27 28 28 29 29 28 26 22 19 16 14
17 19 20 21 22 22 22 21 21 22 24 25 26 24 19 14 12 13 13 12 12 13 14 14 14 13 13 13 12 12 11 10 10 10 9 8 8 8 9 9 9 9 7 6 6 7 8 9 10 10 11 12 12 11 11 12 13 13 15 18 20 21 23 25 26 26 27 27 26 25 24 24 25 25 26 27 28 29 29 29 27 22 17 15 14 14
15 15 15 16 16 16 15 15 15 16 18 20 20 19 16 13 12 12 12 11 12 13 14 14 14 13 13 12 11 10 8 8 9 9 9 7 7 8 9 9 9 8 7 6 6 6 6 6 7 8 10 11 11 10 10 10 11 11 11 12 13 15 18 20 22 23 24 25 25 25 25 25 25 25 26 27 28 29 30 30 27 22 15 13 13 13
14 13 13 13 13 12 12 12 12 13 13 14 14 14 13 13 12 11 11 11 11 12 13 14 14 14 13 12 12 11 9 8 9 10 10 7 7 8 9 9 9 9 8 8 7 7 6 5 5 6 8 9 9 9 10 10 10 10 10 11 11 12 15 16 16 17 17 20 22 23 24 24 24 25 26 27 28 29 30 30 27 22 15 13 12 12
13 12 12 12 12 12 11 11 11 11 12 11 11 11 12 12 12 12 11 11 11 12 13 13 14 14 14 14 14 13 11 10 11 12 12 9 7 7 9 10 11 10 10 9 9 9 8 7 7 6 7 8 8 9 9 10 10 10 11 11 11 12 14 14 13 12 12 14 16 18 20 21 23 24 26 27 28 29 30 31 29 25 18 13 12 11
13 13 13 12 12 12 12 12 12 12 12 12 12 12 11 11 12 12 12 11 11 11 12 13 13 14 14 14 13 13 12 11 12 13 13 9 7 7 9 10 11 11 10 10 10 9 9 10 9 8 7 7 8 8 9 10 10 11 11 11 12 12 13 12 11 9 9 10 11 12 13 15 17 20 23 26 27 29 30 31 30 28 23 16 12 11
12 13 13 12 12 12 12 12 12 12 12 12 12 12 12 12 11 11 12 11 11 11 11 12 13 13 14 14 13 13 13 12 12 13 13 10 8 7 8 9 10 10 10 10 9 9 9 10 11 10 8 7 7 8 8 9 10 10 11 11 12 12 12 11 10 9 8 9 9 9 8 9 10 13 17 21 24 27 29 31 31 30 27 21 16 13
12 12 12 12 12 12 12 13 13 12 12 12 12 12 12 12 12 12 12 12 12 12 12 12 13 13 13 14 14 15 14 13 13 14 14 11 9 8 8 8 9 9 10 10 9 9 9 10 11 11 10 9 8 7 7 8 9 10 10 11 11 11 11 11 10 9 8 9 9 8 7 7 8 9 11 18 22 26 29 31 32 31 29 25 21 17
12 12 12 12 12 12 12 12 12 12 12 12 12 12 12 12 12 12 12 12 13 13 14 15 15 15 16 15 15 15 15 14 15 15 16 13 11 10 10 9 9 10 10 10 9 8 9 9 10 10 10 10 8 7 6 7 8 9 10 10 10 10 11 11 10 9 9 10 10 9 7 7 7 8 9 15 20 24 28 30 32 32 31 28 25 22
12 12 12 12 12 12 12 12 12 12 12 12 12 13 13 14 14 14 13 14 14 15 15 15 15 16 20 21 20 19 18 19 19 20 20 17 14 12 12 11 11 11 10 10 9 9 9 9 10 10 9 9 9 9 8 8 8 9 9 9 9 10 11 11 11 10 9 10 9 8 6 6 6 6 7 10 13 16 19 22 25 28 29 27 25 24
12 12 12 12 12 12 12 12 12 12 12 13 13 14 14 15 16 16 14 14 15 16 16 16 15 16 19 22 23 23 22 22 23 23 22 19 16 14 13 13 13 12 11 10 10 10 10 10 10 8 8 8 9 9 9 8 8 9 9 9 9 10 10 11 11 10 9 10 9 8 6 5 5 5 6 7 9 11 13 14 16 19 20 19 20 21
12 12 13 13 13 12 12 13 13 13 13 14 15 16 15 15 15 14 14 14 14 15 16 17 16 15 16 17 19 20 21 20 20 20 20 18 17 15 14 13 13 13 12 11 11 11 12 12 11 10 9 8 8 8 8 8 9 9 9 8 8 8 9 10 10 10 9 9 9 8 6 5 4 5 6 7 9 10 12 11 12 13 15 14 14 14
13 13 13 13 13 13 13 14 14 14 14 14 14 14 13 13 13 12 12 13 13 13 13 14 14 14 14 15 16 17 19 18 19 19 18 19 18 17 15 14 13 13 12 12 12 12 12 13 12 11 10 9 9 9 9 9 10 11 11 9 8 8 9 10 11 11 10 10 9 8 6 5 5 6 7 8 8 10 11 11 12 12 13 12 12 12
14 13 13 12 12 12 13 13 14 15 15 14 13 13 12 12 12 12 12 12 12 12 12 12 12 13 14 14 14 15 16 16 17 18 19 19 19 18 17 15 14 12 12 12 12 13 13 13 13 12 11 10 10 9 9 10 10 11 11 10 10 10 10 11 11 11 11 10 9 8 7 5 5 6 8 8 8 8 9 11 12 13 13 12 11 10
13 13 13 13 13 13 14 14 14 14 13 12 12 12 12 12 12 13 13 13 13 13 13 12 12 13 14 13 13 13 14 15 16 18 18 19 19 19 18 17 16 14 12 12 12 13 13 14 14 13 13 12 11 11 10 10 10 10 10 10 10 9 6 8 9 10 10 10 8 7 7 6 6 7 8 9 8 8 8 10 11 12 12 12 11 11
12 12 13 13 13 13 13 13 13 12 12 13 13 13 13 13 13 14 14 13 13 13 13 12 12 13 14 14 14 13 12 13 15 17 18 19 19 19 19 19 18 17 15 13 12 11 12 13 13 13 13 12 12 12 12 11 10 10 10 10 10 10 8 7 8 9 10 9 8 6 6 6 6 7 8 9 8 7 8 9 9 10 11 10 10 10
12 12 12 13 13 13 13 13 13 13 13 13 14 14 14 14 14 13 13 13 13 13 13 12 12 12 12 13 13 12 11 11 11 12 13 16 19 20 19 18 18 17 16 15 13 12 11 11 11 12 11 12 13 13 14 13 12 11 11 10 10 10 10 9 10 11 11 10 8 6 6 6 6 7 10 10 8 8 9 10 10 10 10 9 9 9
12 12 13 13 13 13 14 14 14 13 13 14 14 14 14 13 13 12 13 14 14 14 14 13 12 12 13 13 12 12 11 11 10 9 9 10 12 15 16 16 16 15 14 14 14 13 12 11 11 11 10 11 12 14 14 14 13 12 11 10 10 10 10 10 11 12 12 11 9 7 6 6 6 8 10 11 9 9 9 10 11 11 11 10 9 9
13 13 13 13 13 13 14 14 14 14 14 14 14 14 13 13 13 13 13 14 14 14 14 13 13 13 14 14 13 12 12 12 11 10 9 9 9 10 11 13 14 15 14 14 14 14 13 13 12 11 11 11 12 13 14 14 13 12 11 10 9 9 9 10 11 12 12 12 10 8 5 5 7 9 12 10 9 8 8 9 10 11 11 10 10 10
13 14 14 14 14 14 14 14 14 14 14 14 14 14 13 13 14 14 14 14 14 14 14 13 13 13 14 14 13 13 13 13 12 11 10 9 9 9 9 10 11 13 14 14 14 15 14 14 14 14 13 12 12 12 13 13 13 12 11 10 9 9 10 10 11 11 12 12 10 7 5 6 8 9 10 8 7 7 8 9 9 9 10 10 9 10
13 13 14 14 14 14 14 14 14 15 15 15 15 14 14 14 15 16 14 14 13 13 13 13 14 14 14 14 13 13 14 13 13 12 11 10 9 8 8 9 9 10 11 12 13 13 13 15 16 17 16 14 13 13 13 12 12 12 11 10 10 9 10 10 11 11 12 12 9 7 6 7 8 9 10 8 8 8 8 8 8 8 8 9 9 9
13 13 14 14 14 15 15 15 15 15 15 16 16 15 15 14 14 13 13 13 12 12 12 13 14 14 14 14 14 14 13 13 12 12 11 10 9 8 8 8 8 9 9 9 10 10 10 11 13 16 19 19 18 15 13 13 12 12 11 10 10 9 9 10 10 11 12 11 9 7 7 8 9 9 10 9 8 9 9 8 8 8 7 8 8 8
14 14 14 14 14 15 15 15 15 15 16 16 16 16 15 14 14 13 12 12 12 13 13 13 13 14 14 14 14 14 14 13 13 12 11 10 9 8 8 8 8 8 8 8 8 8 8 8 9 12 16 22 23 21 15 13 12 11 11 11 10 9 9 10 10 11 12 11 9 7 7 9 10 9 8 8 8 8 8 8 8 8 8 8 8 8
Wind_Direction
298 298 298 297 295 293 290 290 291 291 291 292 294 295 296 296 294 293 294 294 293 292 291 290 290 290 290 289 288 288 287 287 287 287 287 286 286 285 283 280 277 274 271 269 267 266 265 264 263 262 262 261 260 260 260 260 259 258 258 257 256 255 254 253 251 249 246 243 240 237 234 231 228 226 225 227 228 228 226 219 211 203 197 194 193 194
296 295 295 295 293 291 289 291 292 293 295 296 297 297 298 296 294 293 292 290 289 289 289 289 289 289 289 288 287 286 286 285 285 285 284 284 284 283 283 281 279 277 274 271 269 267 266 265 264 263 262 261 260 259 259 258 257 257 256 256 255 254 253 252 250 249 246 245 243 241 239 235 231 228 226 228 229 230 230 227 220 211 201 196 194 194
299 296 294 293 293 292 292 296 297 297 298 298 297 297 296 294 293 291 289 288 287 286 286 287 288 288 288 288 287 286 285 284 284 283 283 282 282 282 282 281 280 279 277 275 272 270 268 266 265 264 263 262 260 259 258 257 256 255 254 253 253 252 251 250 249 248 246 245 243 242 240 237 234 230 228 228 230 231 232 231 227 220 210 202 197 195
297 295 296 297 296 295 296 300 301 301 299 297 295 294 293 291 289 287 286 286 286 285 285 285 286 286 286 286 285 285 285 285 285 285 285 284 284 283 283 282 282 281 280 277 275 272 270 268 266 265 264 262 261 259 258 256 255 253 252 251 250 249 248 247 247 246 245 244 242 241 239 237 235 232 230 228 229 230 231 231 230 227 220 211 204 199
294 295 300 302 300 299 300 301 302 301 298 294 292 291 290 288 286 286 286 286 285 285 285 284 284 284 285 286 286 286 286 286 286 286 286 285 284 283 283 282 281 280 279 277 276 274 272 269 268 266 264 263 262 260 258 256 255 253 251 250 248 247 246 245 244 244 244 243 242 240 238 236 235 233 230 228 227 228 229 230 230 229 226 220 213 207
296 297 301 301 301 301 303 301 300 298 295 292 290 289 288 286 286 286 286 286 286 286 285 285 285 285 285 285 285 285 285 285 284 284 283 282 281 280 279 278 277 276 275 274 273 272 270 269 267 265 264 263 262 260 259 257 255 253 251 249 247 246 244 243 243 242 242 242 241 240 238 236 235 233 231 228 226 226 226 228 229 230 229 226 222 216
295 295 298 297 297 297 298 297 297 296 294 293 292 290 288 287 287 286 287 287 288 287 287 286 284 283 283 282 282 282 283 282 281 280 279 278 277 277 276 275 274 273 273 271 270 269 268 266 265 263 262 261 260 260 259 257 256 254 252 250 248 246 244 242 242 241 241 241 240 239 238 236 234 233 231 229 226 225 224 225 226 228 228 227 226 224
294 294 295 295 295 294 292 291 290 291 292 293 294 295 294 291 289 288 288 287 286 286 285 284 282 280 279 280 281 281 282 281 281 280 279 278 278 277 277 276 276 275 274 273 271 270 268 266 264 262 260 259 258 258 257 257 255 254 252 250 248 246 244 243 241 241 240 240 239 238 237 235 233 232 230 229 227 226 225 224 225 226 226 226 226 226
293 294 293 292 293 293 292 288 287 288 291 293 295 296 298 296 294 291 288 286 284 284 283 284 284 282 281 283 284 285 285 284 284 283 283 282 281 281 280 281 281 280 279 278 277 276 274 270 267 264 261 259 257 256 256 255 255 253 252 251 249 247 245 243 242 241 240 240 239 237 236 234 232 230 229 228 228 227 226 225 224 224 224 224 224 224
287 289 290 288 287 287 288 290 291 292 293 291 290 290 292 293 294 293 290 288 287 286 286 287 288 289 289 289 288 288 288 286 284 284 284 284 284 284 284 284 283 282 281 280 280 279 278 275 272 269 264 261 258 256 255 254 253 252 251 250 249 247 245 244 242 241 240 239 238 237 235 233 232 230 228 227 227 226 225 224 223 222 222 222 222 222
287 287 288 289 287 285 285 289 292 294 293 290 285 282 280 285 290 294 295 294 295 294 293 292 293 295 296 294 292 290 289 288 286 285 284 283 283 283 283 282 281 280 279 278 277 277 276 274 272 270 267 263 260 257 255 254 252 251 250 250 249 247 246 244 242 241 240 239 238 236 235 233 231 230 229 227 226 224 223 222 221 221 221 221 221 221
290 290 290 291 291 290 288 288 288 290 291 289 288 287 284 286 290 295 296 297 298 299 298 295 293 292 293 294 293 292 289 287 287 286 285 283 282 281 281 280 278 277 277 276 275 274 273 272 271 270 268 265 262 259 257 255 253 251 250 249 248 247 246 244 242 241 239 238 237 236 234 233 232 230 229 228 226 224 222 221 221 221 221 221 221 220
288 289 289 289 289 289 290 292 293 293 292 291 292 293 294 296 297 296 293 293 294 296 297 295 292 289 287 288 289 290 289 286 285 285 284 282 281 281 280 279 278 277 277 276 274 273 272 272 271 269 267 265 263 260 258 256 253 252 250 248 247 246 245 243 242 240 239 238 236 235 234 233 231 230 229 228 227 225 224 223 222 221 221 220 220 219
288 289 288 288 287 288 290 293 294 294 292 291 291 292 294 297 297 295 290 288 289 291 293 291 290 289 287 286 286 286 287 286 285 283 280 279 278 278 278 277 276 275 275 274 272 270 270 270 269 268 267 265 263 261 258 255 253 251 250 248 247 246 245 243 241 240 238 237 236 235 233 232 231 230 229 228 227 226 225 224 223 222 220 219 218 217
288 289 287 286 286 287 289 290 290 289 289 290 291 293 295 294 292 290 289 288 290 291 291 289 287 286 283 283 283 284 283 282 282 281 279 277 275 274 274 274 274 272 271 271 270 270 270 271 272 274 274 272 269 267 265 260 255 251 250 249 247 246 245 243 241 239 237 236 235 234 232 231 230 229 228 228 227 226 226 225 224 222 219 218 216 215
287 287 286 287 287 286 286 287 288 288 291 292 293 293 293 292 291 289 288 289 291 292 290 289 288 285 280 276 277 280 283 282 281 281 282 280 278 276 276 277 276 275 274 273 275 277 279 280 283 286 287 283 280 279 280 277 268 259 256 251 249 247 245 243 241 239 237 235 234 233 232 230 229 228 227 226 226 225 225 225 224 222 219 217 215 214
284 284 284 284 285 284 285 285 286 287 290 291 290 289 288 289 290 290 287 288 289 289 286 285 286 287 287 283 278 278 284 286 286 285 285 284 283 283 284 283 282 280 278 276 277 278 280 280 281 283 284 285 286 287 286 285 280 273 268 262 257 252 248 244 241 238 236 234 233 232 231 230 228 227 226 225 224 223 223 223 223 222 219 217 214 213
281 281 282 282 283 284 287 286 286 286 287 288 289 289 287 287 288 289 288 287 287 286 285 281 279 280 287 287 286 285 288 289 289 288 285 283 283 284 285 283 281 280 278 276 275 275 275 274 275 276 276 280 282 284 286 286 284 281 278 272 266 261 255 249 244 239 236 234 233 231 230 229 228 227 225 223 222 221 221 221 221 220 218 216 214 213
279 278 279 280 282 285 286 286 287 288 289 290 292 294 293 291 289 289 287 285 283 282 282 281 278 276 277 280 283 287 289 286 285 283 281 280 279 280 280 279 278 277 276 274 274 273 272 271 270 271 272 276 277 279 280 282 282 282 281 277 273 268 264 257 251 246 240 236 233 231 230 229 228 226 225 223 221 220 219 219 219 219 218 216 214 212
280 279 278 282 286 287 285 283 284 287 290 294 296 296 293 291 289 285 283 281 279 277 276 276 276 275 275 277 280 283 285 283 281 278 276 276 276 276 275 275 275 275 273 272 272 272 272 271 270 271 272 273 275 276 277 278 278 278 278 277 274 271 268 263 259 254 248 242 237 233 231 230 228 227 225 223 221 220 219 219 218 218 218 216 214 212
282 280 278 282 285 286 285 285 286 289 291 294 294 291 287 286 285 282 281 280 279 277 275 273 273 274 275 276 277 279 281 279 277 276 275 273 272 271 271 271 272 272 271 271 271 271 272 272 271 269 268 271 273 274 275 276 276 276 275 275 274 273 270 267 263 258 253 247 241 236 233 231 229 227 225 223 221 220 219 218 218 217 217 216 214 213
280 280 280 280 280 280 281 284 286 287 287 287 285 282 281 283 282 282 281 280 279 277 274 272 273 274 276 275 275 276 275 272 271 271 273 271 269 268 267 268 269 269 269 269 269 269 269 269 269 268 267 269 270 272 274 275 275 274 274 273 273 272 271 269 266 262 257 251 245 239 234 232 229 228 226 223 221 220 218 218 217 217 216 215 214 212
275 277 280 279 277 276 278 281 282 283 283 281 278 276 276 276 277 277 278 276 275 274 273 273 273 273 272 272 272 271 267 264 263 264 266 266 266 266 265 265 266 266 265 267 268 268 268 267 267 267 267 267 268 270 272 273 273 273 272 272 271 270 269 268 266 263 259 254 248 242 237 233 230 228 225 223 221 219 218 217 217 216 215 214 212 211
273 275 277 277 276 276 277 279 280 281 280 276 273 271 270 269 269 270 272 271 272 272 272 273 273 271 267 266 266 265 261 257 256 257 258 260 263 264 263 263 263 264 264 265 266 267 267 266 266 266 267 266 267 268 269 270 271 272 271 270 269 268 267 267 265 262 259 254 250 245 240 235 231 228 225 223 221 219 218 217 216 215 214 213 211 210
275 275 276 276 276 276 276 276 277 278 278 276 274 272 271 271 272 272 272 271 272 272 274 273 272 271 270 267 265 263 258 253 251 251 253 258 261 262 260 258 259 261 263 263 264 265 266 265 265 265 265 265 265 266 267 268 269 270 270 270 269 268 266 265 263 260 257 254 250 247 242 237 233 229 225 222 220 218 217 216 215 214 213 212 210 208
277 277 277 277 277 277 277 278 278 278 279 279 279 279 279 280 279 278 276 275 276 277 279 277 275 274 274 272 269 266 262 255 250 248 249 256 260 261 257 254 255 258 261 261 260 260 262 263 263 263 263 264 265 265 265 266 267 269 270 270 270 269 267 265 263 259 256 252 249 246 244 240 236 231 226 222 219 217 216 215 214 213 212 210 209 207
278 278 278 278 278 278 278 279 279 280 280 281 281 282 284 286 286 284 281 281 282 283 282 280 279 278 278 274 272 270 270 264 256 250 249 256 260 260 257 254 254 256 259 258 257 256 257 259 260 260 261 262 263 264 265 266 267 269 270 271 271 271 269 267 264 261 257 252 248 245 243 240 237 233 228 223 219 216 214 213 212 210 209 208 208 207
279 278 278 278 279 279 280 280 281 282 282 283 284 285 285 285 284 282 280 282 284 282 278 277 278 280 280 277 276 276 275 269 263 257 253 256 258 259 259 258 257 257 258 258 257 255 253 255 256 257 259 260 261 263 264 265 267 268 269 270 270 270 268 266 264 262 258 254 249 245 241 238 236 232 228 223 219 215 212 210 209 208 206 206 207 208
281 281 281 281 281 282 282 283 283 283 283 283 284 284 283 279 276 275 277 280 280 278 274 274 275 277 279 280 280 278 273 268 263 260 256 256 257 259 261 261 259 258 258 261 259 255 251 250 251 253 256 257 258 260 262 263 265 266 266 266 266 265 264 263 261 260 257 254 250 245 241 238 235 232 228 223 218 214 210 207 206 206 205 205 206 206
286 286 285 285 284 284 284 283 283 283 282 282 282 281 278 273 269 270 274 276 275 273 273 273 274 275 277 279 279 276 269 264 261 259 256 256 257 259 260 260 258 257 257 262 262 258 251 247 246 248 251 253 254 256 258 259 261 263 264 263 262 261 259 258 256 255 254 251 248 245 241 238 235 232 228 223 218 213 209 206 204 203 204 204 205 205
293 291 290 288 287 286 285 284 283 282 281 281 280 278 275 270 266 266 268 268 268 268 270 271 272 273 274 276 276 274 271 268 266 265 261 259 259 260 261 260 259 256 252 257 262 264 261 253 247 246 248 251 252 254 255 258 261 263 266 266 265 263 260 256 253 251 249 247 245 242 239 237 234 232 228 223 218 213 208 204 202 201 202 202 202 202
295 293 291 291 290 289 287 285 283 282 281 280 278 275 272 268 265 263 262 261 262 264 267 270 271 272 271 270 271 272 275 277 276 274 270 268 265 263 261 261 260 258 252 252 256 263 270 267 261 255 253 254 256 256 257 260 264 267 271 273 273 271 266 262 256 251 247 244 241 238 236 234 233 231 228 223 218 213 208 204 201 200 201 200 198 198
295 294 293 293 291 289 287 285 284 282 281 279 277 275 272 269 266 263 260 259 259 261 265 268 270 271 271 269 269 269 272 274 275 274 272 270 268 265 262 261 261 260 257 253 254 257 263 267 268 267 262 261 261 261 262 263 266 268 271 273 274 273 271 269 263 256 250 243 238 234 232 232 231 229 227 223 218 212 207 203 200 199 199 197 194 191
296 294 293 292 291 289 287 286 284 283 281 280 278 276 274 271 268 266 263 260 259 259 261 264 268 271 272 272 270 269 270 271 272 273 272 269 267 266 264 261 260 259 258 255 253 253 256 258 260 262 263 260 259 259 260 262 263 264 265 266 267 268 268 267 264 258 251 245 239 234 228 228 228 227 226 222 217 212 207 202 199 198 197 194 190 186
296 294 293 292 291 290 289 288 286 285 283 281 280 278 277 275 272 270 267 265 262 259 258 260 263 267 270 272 273 273 273 274 276 277 276 273 270 269 267 263 261 260 259 256 254 252 253 253 252 253 256 257 256 254 254 257 259 260 261 260 261 262 263 262 260 256 251 246 241 235 225 223 223 224 224 220 215 211 205 201 198 197 196 194 191 187
295 294 293 293 293 292 292 290 289 287 286 284 282 280 279 277 275 273 271 268 266 263 260 259 259 261 264 267 270 273 276 278 279 279 277 274 273 271 269 266 264 263 262 261 258 256 255 254 252 250 250 252 253 253 251 253 255 258 259 260 262 264 265 264 262 258 253 249 243 237 226 222 221 221 221 215 211 207 203 200 197 196 195 195 194 193
295 294 294 294 294 293 293 292 291 289 288 286 285 283 281 279 277 275 273 271 268 266 264 262 261 260 258 260 263 267 271 274 274 273 271 270 269 268 268 268 266 265 264 264 264 263 262 261 257 253 248 247 249 251 252 252 254 255 258 261 265 269 273 273 271 265 257 252 247 239 228 224 223 222 220 212 207 204 201 199 197 195 195 196 197 197
296 295 295 295 294 294 293 292 291 290 289 288 287 285 284 282 279 278 276 272 269 267 266 264 263 261 259 259 259 260 263 265 266 266 265 264 263 263 264 266 265 263 261 263 266 269 269 267 263 258 252 249 248 249 251 252 253 255 257 261 265 270 275 277 276 272 263 255 248 240 229 226 225 223 218 208 202 199 199 198 197 195 194 195 197 196
296 296 296 296 295 294 293 292 291 291 290 289 287 287 286 284 282 279 275 272 269 266 264 263 263 262 260 260 259 259 259 260 260 260 260 259 258 258 260 263 263 262 260 260 262 265 268 268 266 265 262 258 254 251 250 250 252 255 259 262 264 265 268 271 272 270 265 256 248 239 230 228 228 227 221 205 195 190 189 190 191 192 191 192 195 195
297 296 295 295 295 293 292 291 291 291 290 289 288 287 286 284 282 278 274 270 268 266 264 262 262 261 260 259 258 258 257 256 256 255 255 253 252 251 254 256 259 260 260 258 258 258 260 264 267 270 269 268 264 259 255 251 251 253 257 261 262 263 265 270 272 272 268 258 247 236 228 229 233 235 230 211 195 185 181 179 180 182 183 184 189 191
297 296 294 295 294 293 291 290 290 290 290 289 288 286 284 283 281 280 278 275 271 269 268 266 265 263 262 259 258 257 255 254 253 251 250 248 247 247 248 250 253 255 257 256 255 254 254 258 263 266 269 271 271 268 261 256 253 253 254 256 260 265 270 273 275 276 275 263 249 235 224 228 235 239 236 218 199 184 175 171 170 171 174 178 180 181
295 295 294 294 294 294 292 291 290 290 289 287 285 284 283 283 283 284 285 283 280 278 276 275 274 272 270 266 262 258 255 253 251 248 247 245 243 242 243 245 246 249 251 252 252 251 250 252 256 260 264 269 272 272 268 261 256 253 251 254 260 266 271 270 270 269 268 262 248 231 217 223 233 239 236 219 201 183 170 166 165 165 168 172 174 173
293 293 293 293 293 292 292 292 291 290 289 287 285 284 284 285 285 285 285 284 284 283 282 280 278 277 276 275 271 266 260 255 251 248 246 243 240 239 239 240 242 243 244 246 247 248 248 248 250 252 255 260 265 270 271 267 261 255 251 252 255 259 264 265 266 266 264 258 246 229 212 216 230 238 236 221 203 182 168 163 163 165 168 170 170 171
293 292 292 293 293 293 293 292 292 291 291 290 289 288 288 287 286 285 284 284 284 285 285 283 281 279 277 277 276 274 268 261 254 250 246 243 239 236 236 237 238 238 238 239 242 245 246 246 246 248 250 253 257 261 264 265 263 258 253 250 249 250 253 262 269 272 272 267 253 231 209 211 224 235 237 221 203 181 168 163 164 167 170 170 170 169
293 293 293 294 295 296 296 295 294 293 292 290 289 289 289 288 287 286 285 286 287 287 286 286 285 283 280 279 279 279 276 271 263 255 250 245 241 237 235 235 234 234 234 235 236 238 240 242 244 246 247 248 250 253 255 258 259 259 256 251 250 250 253 260 266 270 273 273 263 240 209 203 214 229 233 220 201 179 167 164 164 166 169 170 170 170
295 296 296 296 297 297 296 296 296 295 293 292 291 291 291 290 289 287 286 288 289 289 289 288 286 284 283 284 284 284 282 278 274 267 260 251 244 238 234 232 231 230 231 231 232 233 235 238 241 244 245 246 247 248 249 251 254 255 255 251 251 252 255 258 262 265 269 271 265 248 215 202 211 225 230 216 198 175 165 164 166 168 169 170 170 170
297 297 297 297 297 296 296 297 297 296 295 295 294 293 293 293 291 290 289 289 290 290 290 288 285 282 282 283 284 284 283 282 280 276 270 263 253 245 238 233 230 228 228 229 229 230 232 234 235 237 239 242 245 246 246 246 248 250 252 251 251 252 254 256 259 263 267 268 264 251 220 207 216 226 227 210 190 170 161 162 165 168 170 170 170 169
298 298 298 298 297 297 297 298 298 298 298 297 296 295 294 294 293 293 292 291 290 290 289 287 285 282 281 281 281 281 282 282 281 279 275 269 262 253 243 236 230 227 226 226 227 228 230 230 230 231 232 236 240 244 245 244 245 246 249 249 249 250 252 254 257 261 264 265 262 250 221 216 221 224 218 198 179 164 157 158 162 166 170 169 168 168
298 298 298 298 298 298 298 299 299 299 299 299 298 297 296 294 293 293 292 291 290 289 288 287 286 284 283 282 281 281 280 280 279 278 275 271 265 257 249 240 233 227 223 222 222 224 227 229 229 228 229 231 235 240 243 243 244 245 248 248 248 248 250 252 255 257 260 261 257 245 224 223 225 223 212 192 173 160 155 154 157 162 167 166 165 164
299 298 298 298 299 299 299 300 300 300 299 300 300 299 298 297 295 293 291 290 289 288 287 286 286 285 284 283 282 281 280 279 277 276 273 269 264 258 250 243 235 229 224 219 217 217 220 225 227 228 227 227 229 233 238 240 242 244 246 246 245 246 248 251 252 253 255 255 250 239 227 227 227 223 211 190 171 158 153 154 158 162 165 163 162 161
300 300 300 300 300 300 300 300 300 300 300 301 301 300 299 299 297 296 293 291 290 289 288 286 285 284 283 283 282 281 279 278 277 275 272 269 263 257 249 243 237 232 228 223 217 213 212 218 224 227 226 225 225 226 230 233 236 238 241 242 242 243 246 250 251 252 252 250 244 233 223 224 223 218 204 184 167 156 154 157 160 163 164 161 160 159